SL-14 DEB, 45282

Orbit data source: Space-Track

SL-14 DEB, 45282 is space debris in LEO originally from a launch on Thu, 15 Aug 1991 UTC launched from the Plesetsk Missile And Space Complex (PKMTR). Debris objects in space refer to the collection of defunct objects orbiting the Earth. Examples of debris include non-operational satellites, rocket bodies, and fragments generated from explosions, collisions, or faulty payload assembly.

Loading next visibility...
Identifier
45282, 1991-056U
Orbit
LEO
Country
Flag of CISCIS
Related business
Manufacturer
Unknown
Mission
Spacecraft
Bus & Motor
Unknown
Mass
Unknown
Launch date (UTC)
1991-08-15 (35 years ago)
Launch vehicle
Unknown
Launch site
Plesetsk Missile And Space Complex (PKMTR)
Object type
Payload
Rocket body
Debris
Shape & HBR
Unknown shape, 0.2 m
Radar Cross Section
Medium (>0.1 m² and <1 m²)

Expand to show TLE details & history
Last TLE update: 5 days ago

TLE from 5 days ago
0 SL-14 DEB
1 45282U 91056U   26155.06287247  .00000324  00000-0  81068-3 0  9992
2 45282  82.6202 167.3165 0017311 198.3207 161.7294 13.16876275302657
Epoch: 2026-06-04T01:30Z
TLE epoch observation values (Epoch: 2026-06-04T01:30:32.181Z)
Latitude
-0.00002°
Longitude
-107.83011°
Altitude
1,211.94 km
Speed
7.242 km/s
True Right ascension
11h 09m 15s
True Declination
0° 00' 00"
Sunlit
Object was in daylight at epoch
Visualization orbit readout
Latitude
Unknown
Longitude
Unknown
Altitude
Unknown
Speed
Unknown
Apparent Right ascension
Unknown
Apparent Declination
Unknown
Sunlit
N/A
Visualization observer readout
Local Sidereal Time
18:51:10
Azimuth
Unknown
Elevation
Unknown
Doppler factor
Unknown
Orbital elements
Apogee altitude
1,207.025 km
Perigee altitude
1,180.809 km
Semi-major axis
7,572.054 km
Eccentricity
0.00173
Inclination
82.6202°
RAAN
167.3165°
Arg. of periapsis
198.3207°
True anomaly
161.79146°
Mean anomaly
161.7294°
Eccentric anomaly
161.76044°
Mean motion
3.29399 °/min
Orbital period
109.29 mins
BSTAR
0.00081068
Loading maneuver chart data...
Computing Atmospheric mass density...
Loading historical data...
Loading historical data...
Loading historical data...
Loading historical data...
Loading historical data...
Loading historical data...
Loading historical data...

Documentation

Showing up to 5 results
|